Lambertville, MI

3:48 AM EDT on August 21, 2017 (GMT -0400)
Lambertville

Weather History for KDUH - November, 2012

Change the Weather History Date:

Saturday, November 24, 2012

  Actual Average (KTOL) Record (KTOL)
Temperature  
Mean Temperature 32 °F -  
Max Temperature 34 °F 42 °F 67 °F (2001)
Min Temperature 31 °F 28 °F 3 °F (1950)
Degree Days  
Heating Degree Days 32    
Moisture  
Dew Point 20 °F    
Average Humidity 61    
Maximum Humidity 72    
Minimum Humidity 50    
Precipitation  
Precipitation 0.00 in - - ()
Sea Level Pressure  
Sea Level Pressure 30.09 in    
Wind  
Wind Speed 8 mph (WNW)    
Max Wind Speed 13 mph    
Max Gust Speed 20 mph    
Visibility 10 miles    
Events      
Averages and records for this station are not official NWS values.
T = Trace of Precipitation, MM = Missing Value Source: NWS Daily Summary

Daily Weather History Graph

Daily Weather History Graph

Search for Another Location

Airport or City:

Trip Planner

Search our weather history database for the weather conditions in past years. The results will help you decide how hot, cold, wet, or windy it might be!

Date:

Astronomy

Nov. 24, 2012 Rise Set
Actual Time 7:35 AM EST 5:07 PM EST
Civil Twilight 7:04 AM EST 5:38 PM EST
Nautical Twilight 6:30 AM EST 6:12 PM EST
Astronomical Twilight 5:57 AM EST 6:45 PM EST
Moon 2:53 PM EST (11/24) 3:48 AM EST (11/24)
Length of Visible Light 10h 33m
Length of Day
9h 32m
Waxing Gibbous, 87% of the Moon is Illuminated
Nov 24
Waxing Gibbous
Nov 28
Full
Dec 6
Last Quarter
Dec 13
New
Dec 20
First Quarter

Hourly Weather History & Observations

Time (EST) Temp. Windchill Dew Point Humidity Pressure Visibility Wind Dir Wind Speed Gust Speed Precip Events Conditions
12:15 AM 33.8 °F 26.4 °F 25.7 °F 72% 30.04 in 10.0 mi West 9.2 mph 16.1 mph N/A   Overcast
12:34 AM 33.8 °F 25.8 °F 25.7 °F 72% 30.04 in 10.0 mi West 10.4 mph - N/A   Overcast
1:15 AM 34.0 °F 27.2 °F 22.5 °F 63% 30.04 in 10.0 mi WNW 8.1 mph - N/A   Overcast
1:34 AM 33.8 °F 27.7 °F 22.6 °F 64% 30.04 in 10.0 mi WNW 6.9 mph - N/A   Overcast
1:55 AM 33.4 °F 25.9 °F 21.2 °F 61% 30.04 in 10.0 mi West 9.2 mph 18.4 mph N/A   Overcast
2:15 AM 33.1 °F 26.1 °F 21.9 °F 64% 30.05 in 10.0 mi WNW 8.1 mph 18.4 mph N/A   Overcast
2:34 AM 32.9 °F 26.7 °F 20.7 °F 61% 30.06 in 10.0 mi WNW 6.9 mph 17.3 mph N/A   Overcast
2:55 AM 32.5 °F 26.2 °F 20.8 °F 62% 30.06 in 10.0 mi WNW 6.9 mph 18.4 mph N/A   Overcast
3:14 AM 32.5 °F 27.1 °F 21.2 °F 63% 30.06 in 10.0 mi WNW 5.8 mph - N/A   Overcast
3:35 AM 32.5 °F 25.5 °F 21.0 °F 63% 30.06 in 10.0 mi WNW 8.1 mph - N/A   Overcast
3:55 AM 32.5 °F 26.2 °F 21.7 °F 64% 30.06 in 10.0 mi WNW 6.9 mph - N/A   Overcast
4:14 AM 32.4 °F 26.0 °F 22.3 °F 66% 30.06 in 10.0 mi WNW 6.9 mph - N/A   Overcast
4:35 AM 32.4 °F 24.6 °F 22.1 °F 66% 30.06 in 10.0 mi WNW 9.2 mph - N/A   Overcast
4:54 AM 32.2 °F 23.8 °F 21.6 °F 65% 30.07 in 10.0 mi WNW 10.4 mph 18.4 mph N/A   Overcast
5:15 AM 32.2 °F 24.4 °F 21.0 °F 63% 30.07 in 10.0 mi WNW 9.2 mph - N/A   Overcast
5:35 AM 32.0 °F 22.5 °F 20.3 °F 62% 30.07 in 10.0 mi WNW 12.7 mph 19.6 mph N/A   Overcast
5:54 AM 32.2 °F 24.4 °F 20.1 °F 61% 30.08 in 10.0 mi WNW 9.2 mph - N/A   Overcast
6:15 AM 32.0 °F 24.2 °F 20.1 °F 62% 30.09 in 10.0 mi WNW 9.2 mph 19.6 mph N/A   Overcast
6:35 AM 32.0 °F 24.8 °F 20.3 °F 62% 30.09 in 10.0 mi WNW 8.1 mph 17.3 mph N/A   Overcast
6:54 AM 32.0 °F 23.6 °F 20.3 °F 62% 30.09 in 10.0 mi NW 10.4 mph 16.1 mph N/A   Overcast
7:15 AM 32.0 °F 24.2 °F 20.1 °F 62% 30.10 in 10.0 mi WNW 9.2 mph 17.3 mph N/A   Overcast
7:34 AM 32.0 °F 23.6 °F 20.3 °F 62% 30.10 in 10.0 mi WNW 10.4 mph - N/A   Overcast
7:55 AM 32.0 °F 26.4 °F 20.3 °F 62% 30.10 in 10.0 mi NW 5.8 mph - N/A   Overcast
8:15 AM 32.0 °F 25.6 °F 20.5 °F 63% 30.11 in 10.0 mi WNW 6.9 mph - N/A   Overcast
8:34 AM 32.0 °F 24.8 °F 20.7 °F 63% 30.12 in 10.0 mi NW 8.1 mph - N/A   Overcast
8:55 AM 32.0 °F 25.6 °F 18.9 °F 58% 30.12 in 10.0 mi NW 6.9 mph - N/A   Overcast
9:15 AM 32.0 °F 24.8 °F 18.5 °F 58% 30.12 in 10.0 mi NW 8.1 mph - N/A   Overcast
9:34 AM 32.0 °F 24.8 °F 18.9 °F 58% 30.13 in 10.0 mi WNW 8.1 mph - N/A   Overcast
9:55 AM 32.0 °F 24.2 °F 19.2 °F 59% 30.13 in 10.0 mi NW 9.2 mph - N/A   Overcast
10:14 AM 32.2 °F 25.8 °F 19.6 °F 60% 30.13 in 10.0 mi WNW 6.9 mph 17.3 mph N/A   Overcast
10:35 AM 33.3 °F 25.7 °F 20.7 °F 60% 30.13 in 10.0 mi WNW 9.2 mph - N/A   Overcast
10:55 AM 34.7 °F 26.9 °F 20.3 °F 56% 30.13 in 10.0 mi WNW 10.4 mph 16.1 mph N/A   Overcast
11:14 AM 34.0 °F 26.0 °F 18.7 °F 54% 30.13 in 10.0 mi WNW 10.4 mph 17.3 mph N/A   Overcast
11:35 AM 33.1 °F 26.1 °F 16.3 °F 50% 30.12 in 10.0 mi NW 8.1 mph 17.3 mph N/A   Overcast
11:54 AM 33.6 °F 25.6 °F 17.8 °F 52% 30.12 in 10.0 mi West 10.4 mph - N/A   Overcast
12:15 PM 33.1 °F 26.9 °F 18.1 °F 54% 30.12 in 10.0 mi WNW 6.9 mph 19.6 mph N/A   Overcast
12:35 PM 33.1 °F 25.5 °F 18.7 °F 56% 30.11 in 10.0 mi WNW 9.2 mph 18.4 mph N/A   Overcast
12:54 PM 33.1 °F 24.9 °F 19.4 °F 57% 30.11 in 10.0 mi WNW 10.4 mph - N/A   Overcast
1:15 PM 32.9 °F 26.7 °F 19.4 °F 58% 30.11 in 10.0 mi WNW 6.9 mph - N/A   Overcast
1:35 PM 32.9 °F 27.5 °F 19.2 °F 57% 30.10 in 10.0 mi West 5.8 mph - N/A   Overcast
1:55 PM 33.3 °F 25.1 °F 19.8 °F 58% 30.10 in 10.0 mi WNW 10.4 mph - N/A   Overcast
2:15 PM 33.1 °F 26.1 °F 20.3 °F 59% 30.10 in 10.0 mi West 8.1 mph - N/A   Overcast
2:34 PM 33.1 °F 26.9 °F 20.3 °F 59% 30.10 in 10.0 mi WNW 6.9 mph 17.3 mph N/A   Overcast
2:55 PM 33.4 °F 27.3 °F 20.3 °F 59% 30.10 in 10.0 mi WNW 6.9 mph 17.3 mph N/A   Overcast
3:15 PM 33.4 °F 25.4 °F 19.4 °F 56% 30.10 in 10.0 mi WNW 10.4 mph 17.3 mph N/A   Overcast
3:34 PM 33.8 °F 25.8 °F 19.2 °F 55% 30.10 in 10.0 mi WNW 10.4 mph - N/A   Overcast
3:55 PM 33.3 °F 25.1 °F 17.8 °F 53% 30.10 in 10.0 mi NW 10.4 mph 16.1 mph N/A   Overcast
4:15 PM 33.1 °F 26.9 °F 18.9 °F 56% 30.10 in 10.0 mi WNW 6.9 mph - N/A   Overcast
4:35 PM 32.9 °F 26.7 °F 18.1 °F 55% 30.10 in 10.0 mi West 6.9 mph - N/A   Overcast
4:55 PM 32.9 °F 24.7 °F 18.3 °F 55% 30.10 in 10.0 mi West 10.4 mph - N/A   Overcast
5:14 PM 32.5 °F 25.5 °F 19.0 °F 58% 30.10 in 10.0 mi WNW 8.1 mph - N/A   Overcast
5:35 PM 32.5 °F 26.2 °F 19.2 °F 58% 30.11 in 10.0 mi West 6.9 mph - N/A   Overcast
5:55 PM 32.4 °F 25.3 °F 20.1 °F 61% 30.11 in 10.0 mi West 8.1 mph - N/A   Overcast
6:15 PM 32.2 °F 27.7 °F 19.2 °F 59% 30.11 in 10.0 mi WNW 4.6 mph - N/A   Overcast
6:35 PM 32.2 °F 25.0 °F 18.9 °F 58% 30.11 in 10.0 mi WNW 8.1 mph - N/A   Overcast
6:55 PM 32.0 °F 25.6 °F 19.2 °F 59% 30.11 in 10.0 mi NW 6.9 mph - N/A   Overcast
7:15 PM 32.2 °F 25.8 °F 19.4 °F 59% 30.10 in 10.0 mi WNW 6.9 mph - N/A   Overcast
7:35 PM 32.2 °F 25.8 °F 19.6 °F 60% 30.11 in 10.0 mi West 6.9 mph - N/A   Overcast
7:55 PM 32.0 °F 27.5 °F 20.3 °F 62% 30.10 in 10.0 mi West 4.6 mph - N/A   Overcast
8:15 PM 32.0 °F 25.6 °F 20.7 °F 63% 30.10 in 10.0 mi West 6.9 mph - N/A   Overcast
8:35 PM 32.0 °F 25.6 °F 20.3 °F 62% 30.09 in 10.0 mi WSW 6.9 mph - N/A   Overcast
8:55 PM 32.0 °F 24.2 °F 20.1 °F 62% 30.09 in 10.0 mi West 9.2 mph - N/A   Overcast
9:15 PM 32.0 °F 25.6 °F 19.2 °F 59% 30.09 in 10.0 mi West 6.9 mph - N/A   Overcast
9:34 PM 32.0 °F 28.7 °F 20.1 °F 62% 30.08 in 10.0 mi West 3.5 mph - N/A   Overcast
9:55 PM 32.0 °F 26.4 °F 20.1 °F 62% 30.06 in 10.0 mi West 5.8 mph - N/A   Overcast
10:15 PM 32.0 °F 26.4 °F 20.1 °F 62% 30.06 in 10.0 mi WSW 5.8 mph - N/A   Overcast
10:35 PM 31.5 °F 24.9 °F 21.9 °F 68% 30.05 in 10.0 mi WSW 6.9 mph - N/A   Overcast
10:55 PM 31.5 °F 24.9 °F 21.9 °F 68% 30.06 in 10.0 mi WSW 6.9 mph - N/A   Overcast
11:14 PM 31.1 °F 24.5 °F 21.9 °F 69% 30.07 in 10.0 mi WSW 6.9 mph - N/A   Overcast
11:35 PM 31.1 °F 25.4 °F 21.9 °F 69% 30.06 in 10.0 mi WSW 5.8 mph - N/A   Overcast
11:55 PM 31.1 °F 24.5 °F 21.6 °F 68% 30.06 in 10.0 mi WSW 6.9 mph - N/A   Overcast